TimeAKDT,TemperatureF,Dew PointF,Humidity,Sea Level PressureIn,VisibilityMPH,Wind Direction,Wind SpeedMPH,Gust SpeedMPH,PrecipitationIn,Events,Conditions,WindDirDegrees,DateUTC
12:36 AM,48.2,44.6,87,29.72,10.0,SW,11.5,-,N/A,,Overcast,230,2013-08-17 08:36:00
12:53 AM,48.9,43.0,80,29.73,10.0,SW,12.7,-,N/A,,Overcast,230,2013-08-17 08:53:00
1:53 AM,42.1,39.9,92,29.73,10.0,SSW,9.2,-,N/A,,Scattered Clouds,210,2013-08-17 09:53:00
2:37 AM,44.6,41.0,87,29.73,10.0,SW,11.5,-,N/A,,Mostly Cloudy,230,2013-08-17 10:37:00
2:48 AM,46.4,42.8,87,29.73,10.0,WSW,13.8,-,N/A,,Overcast,240,2013-08-17 10:48:00
2:53 AM,46.0,43.0,89,29.73,10.0,SW,12.7,-,N/A,,Overcast,230,2013-08-17 10:53:00
3:53 AM,45.0,43.0,93,29.72,10.0,SW,10.4,21.9,N/A,,Overcast,220,2013-08-17 11:53:00
4:12 AM,46.4,42.8,87,29.72,10.0,SSW,10.4,-,N/A,,Overcast,210,2013-08-17 12:12:00
4:53 AM,44.1,41.0,89,29.73,10.0,SSW,6.9,-,N/A,,Overcast,200,2013-08-17 12:53:00
5:53 AM,42.1,39.0,89,29.73,10.0,SSW,8.1,-,N/A,,Overcast,200,2013-08-17 13:53:00
6:53 AM,44.1,41.0,89,29.73,10.0,SSW,9.2,-,N/A,,Overcast,210,2013-08-17 14:53:00
7:53 AM,48.0,45.0,89,29.73,10.0,WSW,10.4,-,N/A,,Overcast,240,2013-08-17 15:53:00
8:53 AM,48.0,45.0,89,29.73,10.0,WSW,11.5,-,N/A,,Overcast,250,2013-08-17 16:53:00
9:19 AM,48.2,44.6,87,29.73,10.0,WSW,15.0,-,N/A,,Overcast,240,2013-08-17 17:19:00
9:53 AM,46.9,44.1,90,29.74,10.0,WSW,12.7,-,N/A,,Overcast,240,2013-08-17 17:53:00
10:53 AM,48.0,44.1,86,29.74,10.0,WSW,13.8,-,N/A,,Overcast,250,2013-08-17 18:53:00
11:53 AM,50.0,44.1,80,29.73,10.0,WSW,15.0,-,N/A,,Overcast,240,2013-08-17 19:53:00
12:13 PM,50.0,44.6,82,29.73,10.0,WSW,17.3,-,N/A,,Overcast,250,2013-08-17 20:13:00
12:49 PM,51.8,44.6,76,29.73,10.0,West,16.1,-,N/A,,Overcast,260,2013-08-17 20:49:00
12:53 PM,52.0,44.1,74,29.73,10.0,WSW,18.4,-,N/A,,Overcast,250,2013-08-17 20:53:00
1:53 PM,53.1,45.0,74,29.73,10.0,West,17.3,23.0,N/A,,Overcast,260,2013-08-17 21:53:00
2:53 PM,54.0,44.1,69,29.72,10.0,West,15.0,-,N/A,,Mostly Cloudy,270,2013-08-17 22:53:00
3:53 PM,55.0,45.0,69,29.72,10.0,West,16.1,-,N/A,,Overcast,270,2013-08-17 23:53:00
4:53 PM,54.0,46.0,75,29.71,10.0,West,12.7,-,N/A,,Overcast,260,2013-08-18 00:53:00
5:53 PM,55.9,46.0,69,29.70,10.0,West,13.8,-,N/A,,Overcast,270,2013-08-18 01:53:00
6:12 PM,57.2,46.4,67,29.70,10.0,West,11.5,-,N/A,,Scattered Clouds,280,2013-08-18 02:12:00
6:53 PM,57.0,46.0,67,29.70,10.0,WNW,13.8,-,N/A,,Clear,290,2013-08-18 02:53:00
8:53 PM,55.0,46.0,72,29.70,10.0,West,15.0,-,N/A,,Scattered Clouds,280,2013-08-18 04:53:00
9:53 PM,52.0,45.0,77,29.70,10.0,West,11.5,-,N/A,,Partly Cloudy,280,2013-08-18 05:53:00
10:53 PM,50.0,44.1,80,29.70,10.0,WSW,5.8,-,N/A,,Partly Cloudy,250,2013-08-18 06:53:00
11:09 PM,50.0,44.6,82,29.70,10.0,WSW,9.2,-,N/A,,Mostly Cloudy,240,2013-08-18 07:09:00
11:32 PM,46.4,42.8,87,29.70,10.0,SW,11.5,-,N/A,,Scattered Clouds,230,2013-08-18 07:32:00
11:53 PM,43.0,41.0,93,29.71,10.0,SSW,6.9,-,N/A,,Partly Cloudy,210,2013-08-18 07:53:00